Regional Weather Roundup
Issued by NWS Wakefield, VA

Home | Current Version | Previous Version | Graphics & Text | Print | Product List | Glossary On
Versions: 1 2 3 4 5 6 7 8 9 10 11 12 13 14 15 16 17 18 19 20 21 22 23 24 25 26 27 28 29 30 31 32 33 34 35 36 37 38 39 40 41 42 43 44 45 46 47 48 49 50
000
ASUS41 KAKQ 251015
RWRAKQ

REGIONAL WEATHER ROUNDUP
NATIONAL WEATHER SERVICE WAKEFIELD VA
600 AM EDT MON JUL 25 2016

Note: "fair" indicates few or no clouds below 12,000 feet with no
significant weather and/or obstructions to visibility. * = Denotes
station may not report precipitation (e.g., rain,snow,etc.),
thunder or fog.

VAZ042-051-052>054-056-251100-
NORTHERN VIRGINIA

CITY           SKY/WX    TMP DP  RH WIND       PRES   REMARKS
WASH NATIONAL  MOCLDY    82  77  84 S5        29.95S
DULLES         FAIR      75  72  90 S3        29.97S
FORT BELVOIR   FAIR      77  75  94 SE1       29.95
QUANTICO       FAIR      80  74  81 W3        29.97S
FREDERICKSBRG* FAIR      77  76  96 CALM      29.96S
STAFFORD*      FAIR      75  73  95 CALM      30.01S FOG
WARRENTON      FAIR      76  71  85 CALM      29.97S
CULPEPER*      FAIR      75  75  99 CALM      29.99R
MANASSAS*      FAIR      75  73  94 CALM      29.97R
LEESBURG*      FAIR      77  73  88 CALM      29.98S
WINCHESTER     FAIR      73  72  94 CALM      30.00S
FRONT ROYAL*   FAIR      73  72  94 S3        30.00S
LURAY*         FAIR     N/A N/A N/A CALM      30.02S HAZE
$$

VAZ048-049-060>072-079>083-251100-
CENTRAL AND SOUTH CENTRAL VIRGINIA

CITY           SKY/WX    TMP DP  RH WIND       PRES   REMARKS
RICHMOND       FAIR      75  72  90 S3        29.99S
CHESTERFIELD*  FAIR      73  61  64 SW3       30.01S
PETERSBURG*    FAIR     N/A N/A N/A CALM      30.01S HAZE
HANOVER        FAIR      78  72  81 S5        30.00S
TAPPAHANNOCK*  FAIR      77  77 100 CALM      29.99S
QUINTON*       FAIR      76  74  94 S5        29.98S
CHARLOTTSVILLE FAIR      78  73  84 CALM      29.99S
GORDONSVILLE*  FAIR      73  73 100 CALM      29.98S
ORANGE*          N/A     73  73 100 CALM      30.00S
LOUISA*        FAIR      81  75  83 CALM      29.98S
BUMPASS*       FAIR      74  73  97 SW3       29.99R
FARMVILLE*     FAIR     N/A N/A N/A CALM      30.00S
CREWE*         FAIR      74  74 100 CALM      30.01S
FORT PICKETT*  FAIR      74  73  98 SW5       30.02S
CHASE CITY*    FAIR      73  71  95 CALM      30.03S
CLARKSVILLE*   FAIR      73  73 100 CALM      30.03R
SOUTH HILL*    FAIR      73  73 100 SW3       30.09S
LAWRENCEVILLE* FAIR      74  74 100 CALM      30.03R
EMPORIA*       FAIR      73  73 100 CALM      30.04R FOG
$$

VAZ088>098-251100-
SOUTHEAST VIRGINIA

CITY           SKY/WX    TMP DP  RH WIND       PRES   REMARKS
NORFOLK        FAIR      79  75  87 SW9       30.01R
VIRGINIA BEACH MOCLDY    83  75  77 SW9       30.01R
NORFOLK NAVAL  FAIR      79  76  90 SW5       30.03R
WEST POINT*    FAIR      78  75  91 CALM      30.00S
SALUDA*        FAIR      78  77  96 SW6       29.98S
NEWPORT NEWS   FAIR      79  77  94 SW10      30.00S
LANGLEY AFB    FAIR      80  77  90 S13       30.00S
FORT EUSTIS    FAIR      79  77  93 SW6       29.98S
WILLIAMSBURG*  FAIR      81  75  83 SW3       30.00F
HR EXEC AP*    FAIR      77  73  88 SW7       30.04S
FRANKLIN*      FAIR      76  74  95 S5        30.03R
US460-WAKEFLD  FAIR      76  74  93 S3        30.01R FOG
$$

VAZ020-022-025-037-045-251100-
WEST CENTRAL AND SOUTHWEST VIRGINIA

CITY           SKY/WX    TMP DP  RH WIND       PRES   REMARKS
STAUNTON*      FAIR      69  69  98 CALM      30.06S
WAYNESBORO*    FAIR      70  69  94 NW5       30.06S
HOT SPRINGS VA FAIR      72  66  83 W8        30.20S
LYNCHBURG      FAIR      71  70  96 CALM      30.05S
DANVILLE       FAIR      72  71  97 CALM      30.04S
SOUTH BOSTON*  FAIR      71  69  95 CALM      30.03S
MARTINSVILLE   FAIR      67  66  97 CALM      30.08S FOG
ROANOKE        FAIR      73  69  87 NW3       30.07S
BLACKSBURG     FAIR      67  67  99 CALM      30.15R FOG
DUBLIN*        FAIR      69  69  98 CALM      30.13S
MARION*        FAIR      67  65  96 CALM      30.18R FOG
HILLSVILLE*    FAIR      69  68  98 S6        30.15S
RICHLANDS*     PTSUNNY   71  70  97 CALM      30.16S
WISE*          FAIR      72  68  88 CALM      30.16S
ABINGDON*      FAIR      72  70  95 CALM      30.14R
$$

MDZ021>025-VAZ099-100-251100-
SOUTHERN MARYLAND AND THE DELMARVA PENINSULA

CITY           SKY/WX    TMP DP  RH WIND       PRES   REMARKS
PATUXENT RIVER PTCLDY    82  74  76 SW10      29.95F
BAY BRIDGE APT CLEAR     81  75  83 SW3       29.95R
LEONARDTOWN    CLEAR     81  73  78 SW5       29.98S
DOVER          MOCLDY    78  78 100 S3        29.94S
GEORGETOWN     CLOUDY    78  76  93 SW5       29.96R FOG
EASTON         CLOUDY    76  76 100 CALM      29.98S
CAMBRIDGE      CLOUDY    77  73  88 S3        29.95S
SALISBURY      PTCLDY    77  75  93 SW5       29.97R
OCEAN CITY     CLOUDY    79  77  94 CALM      29.96S
WALLOPS ISLAND FAIR      82  78  88 W3        29.98R
ACCOMACK*      FAIR      81  75  83 SW6       29.99R
$$

NCZ012>017-030>032-251100-
NORTH CENTRAL AND EASTERN NORTH CAROLINA

CITY           SKY/WX    TMP DP  RH WIND       PRES   REMARKS
ROANOKE RAPIDS FAIR      73  73 100 S3        30.03S FOG
RALEIGH        PTCLDY    78  75  90 S6        30.05R
ELIZABETH CITY PTCLDY    77  75  93 SW6       30.03S
AHOSKIE*       PTCLDY    75  74  98 CALM      30.04R FOG
EDENTON*       PTCLDY    81  81 100 SW5       30.05R
CURRITUCK*     PTCLDY    79  77  96 SW5       30.04R
KILL DEVIL HLS PTCLDY    80  76  89 SW8       30.03S
MANTEO           N/A     79  79  98 W9        30.05R
CAPE HATTERAS  CLEAR     81  77  88 W9        30.05R
TARBORO*       FAIR      77  75  95 CALM      30.05S
GOLDSBORO      CLEAR     78  78 100 S3        30.04R
WASHINGTON     CLEAR     76  75  95 SW7       30.05S
GREENVILLE     CLOUDY    79  77  94 SW7       30.06S FOG
NEW BERN       CLEAR     77  75  93 S5        30.07R
WILMINGTON     CLEAR     78  76  93 SW3       30.07R
$$

VAZ048-251100-
ELSEWHERE

CITY           SKY/WX    TMP DP  RH WIND       PRES   REMARKS
HARRISBURG PA  CLOUDY    76  75  97 CALM      29.96R
BALTIMORE      CLOUDY    78  73  84 SW5       29.95R
ANNAPOLIS      CLOUDY    79  74  84 S3        29.95R
ANDREWS AFB    CLOUDY    76  74  93 S5        29.95S
PHILADELPHIA   CLOUDY    75  73  93 N7        29.96F
GREENSBORO     PTCLDY    76  73  91 SW6       30.05R
ROCKY MOUNT    CLEAR     76  76 100 S3        30.04S FOG
$$

VAZ100-251100-
MARINE

STATION/POSITION TIME  TEMP    WIND        PRES    WAVE   SWELL
                       AIR SEA DIR/SP/G            HT/PER HT/PER
                 (UTC) (F)     (DEG/KT/KT) (MB)    (FT/S) (FT/S)
CAPE MAY NJ      0900   76 71  150/  5/  8 1013.5F
LEWES DE         0900   77 74  160/  3/  4 1013.6F
OCEAN-CITY-INLET 0900   75 70  190/  5/  6 1014.7S
WACHAPREAGUE VA  0900   81 86  230/  6/  8 1015.1R
THOMAS POINT MD  1000   80 83  230/  5/  6 1015.7R
GOOSES REEF MD   1000   83 84  220/ 10/ 12 1015.3R   1/ 2
COVE POINT MD    0900   81     210/ 10/ 11 1014.8R
SOLOMONS ISLAND  0900   82 85  180/  5/  5   N/A
BISHOPS HEAD MD  0900   84 86   90/  1/  3 1014.9R
PINEY POINT MD   0900          240/  6/  7   N/A
POTOMAC MD       1000   83 84  240/ 10/ 12 1013.7R   1/ 2
CAMBRIDGE MD     0900   78 86  200/  4/  6 1013.1R
LEWISETTA VA     0900   82 87  250/  7/  8 1014.4R
RAPPAHANNOCK LGT 0900          230/ 16/ 18 1015.7R
STINGRAY PT      1000   82 85  180/ 16/ 17 1015.4S   1/ 2
YORK RVR RNG VA  0900   82     250/ 11/ 13 1015.1R
YORKTOWN VA      0900   81 84  230/  7/  9 1015.2R
JAMESTOWN VA     1000   80 88  220/ 10/ 14   N/A     0
DOMINION TERM VA 0900   81     240/ 13/ 16 1015.8R
KIPTOPEKE VA     0900      77  250/ 10/ 12   N/A
CHES BAY BRIDGE  0900   81 68  210/ 12/ 14 1015.7R
CAPE HENRY VA    0900   81     220/  8/ 14   N/A
WILLOUBY STN VA  0900   80     220/ 13/ 15   N/A
CAPE HENRY BUOY  0912      76                N/A     2/ 8
1ST LANDING BUOY 1000   78 75  220/ 10/ 12 1015.9R
CAPE CHARLES BUO 0926      73                N/A     2/ 9
OFFSHORE WE BUOY 0921      81                N/A     2/ 9
64NM E OF VA BCH 0950   81 81  240/ 14/ 17 1016.3R   3/ 5   2/ 8
DUCK PIER NC     0900   81 60  230/ 15/ 18 1016.1R
44100 DUCK FRF   0905      74                N/A     2/ 8
44056 DUCK FRF   0911      64                N/A     1/ 8
OREGON INLET NC  0900   82 85  230/ 15/ 19 1016.4F
HATTERAS NC      0900   80 83  230/  6/  8 1017.0R
DIAMOND SHLS NC  0950   84 85  230/ 16/ 17 1017.5R   3/ 4   2/ 8
CAPE LOOKOUT NC  1000   82     250/  8/ 10 1017.8R
$$



USA.gov is the U.S. government's official web portal to all federal, state and local government web resources and services.